HK6RM-20 Weather Reports


time (UTC)temp
C
wind
direction
speed
KPH
gust
KPH
rain 1hr
cm
rain 24hr
cm
rain mn
cm
humidity
%
barometer
mb
20260503072406 20 67 1.6 1.6 0.00 0.00 0.00 98 1015.0
20260503071106 20 67 1.6 1.6 0.00 0.00 0.00 98 1015.0
20260503053959 20 302 1.6 1.6 0.00 0.00 0.00 98 1016.0
20260503052658 20 328 0.0 3.2 0.00 0.00 0.00 98 1017.0
20260503051357 21 328 0.0 3.2 0.00 0.00 0.00 98 1017.0
20260503050052 21 328 0.0 3.2 0.00 0.00 0.00 98 1017.0
20260503044751 22 328 0.0 3.2 0.00 0.00 0.00 98 1017.0
20260503043451 22 328 0.0 3.2 0.00 0.00 0.00 98 1017.0
20260503042150 18 32 0.0 1.6 0.00 0.00 0.00 96 1017.0
20260503040850 19 32 0.0 1.6 0.00 0.00 0.00 96 1017.0
20260503035548 20 32 0.0 1.6 0.00 0.00 0.00 96 1017.0
20260503034247 20 32 0.0 1.6 0.00 0.00 0.00 96 1017.0
20260503032945 21 56 0.0 0.0 0.00 0.00 0.00 96 1017.0
20260503031645 21 56 0.0 0.0 0.00 0.00 0.00 96 1017.0
20260503030344 22 56 0.0 0.0 0.00 0.00 0.00 96 1016.0
20260503025044 22 56 0.0 0.0 0.00 0.00 0.00 96 1016.0
20260503023743 23 56 0.0 0.0 0.00 0.00 0.00 96 1016.0
20260503022443 23 116 0.0 1.6 0.00 0.00 0.00 96 1016.0
20260503021142 19 151 1.6 6.4 0.00 0.00 0.00 88 1016.0
20260503015842 20 151 1.6 6.4 0.00 0.00 0.00 88 1015.0
20260503014540 20 151 1.6 6.4 0.00 0.00 0.00 88 1015.0
20260503013239 21 151 1.6 6.4 0.00 0.00 0.00 88 1015.0
20260503011938 21 151 1.6 6.4 0.00 0.00 0.00 88 1015.0
20260503010637 22 151 1.6 6.4 0.00 0.00 0.00 88 1014.0
20260503005336 22 151 1.6 6.4 0.00 0.00 0.00 88 1014.0
20260503004035 23 151 3.2 6.4 0.00 0.00 0.00 88 1014.0
20260503002733 23 180 0.0 1.6 0.00 0.00 0.00 88 1014.0
20260503001431 24 180 0.0 1.6 0.00 0.00 0.00 88 1014.0
20260503000131 19 160 1.6 1.6 0.00 0.00 0.00 87 1013.0
20260502234830 20 160 1.6 1.6 0.00 0.00 0.00 87 1013.0
20260502233530 20 160 1.6 1.6 0.00 0.00 0.00 87 1014.0
20260502232229 21 266 0.0 0.0 0.00 0.00 0.00 87 1014.0
20260502230927 21 266 0.0 0.0 0.00 0.00 0.00 87 1013.0
20260502225627 22 266 0.0 0.0 0.00 0.00 0.00 87 1013.0
20260502224326 22 266 0.0 0.0 0.00 0.00 0.00 87 1013.0
20260502223026 23 266 0.0 0.0 0.00 0.00 0.00 87 1012.0
20260502221725 23 242 0.0 1.6 0.00 0.00 0.00 87 1012.0
20260502220424 24 242 0.0 1.6 0.00 0.00 0.00 87 1012.0
20260502215123 21 267 1.6 1.6 0.00 0.00 0.00 90 1011.0
20260502213822 22 267 1.6 1.6 0.00 0.00 0.00 90 1011.0
20260502212521 22 267 1.6 1.6 0.00 0.00 0.00 90 1011.0
20260502211219 23 267 1.6 3.2 0.00 0.00 0.00 90 1011.0
20260502205918 22 267 1.6 1.6 0.00 0.00 0.00 88 1011.0
20260502204616 22 267 1.6 1.6 0.00 0.00 0.00 88 1011.0
20260502203314 23 267 1.6 3.2 0.00 0.00 0.00 88 1011.0
20260502202012 23 263 0.0 1.6 0.00 0.00 0.00 88 1011.0
20260502200710 22 263 0.0 1.6 0.00 0.00 0.00 79 1011.0
20260502195410 23 263 0.0 1.6 0.00 0.00 0.00 79 1011.0
20260502194109 23 263 0.0 1.6 0.00 0.00 0.00 79 1011.0
20260502192808 24 285 0.0 1.6 0.00 0.00 0.00 79 1012.0
20260502191506 25 285 0.0 1.6 0.00 0.00 0.00 79 1012.0
20260502190205 23 288 1.6 1.6 0.00 0.00 0.00 77 1012.0
20260502184904 23 288 1.6 1.6 0.00 0.00 0.00 77 1011.0
20260502183604 24 288 1.6 1.6 0.00 0.00 0.00 77 1011.0
20260502182304 25 288 1.6 1.6 0.00 0.00 0.00 77 1012.0
20260502181003 25 288 1.6 3.2 0.00 0.00 0.00 77 1013.0
20260502170457 25 316 1.6 3.2 0.00 0.00 0.00 79 1014.0
20260502163856 23 294 1.6 1.6 0.00 0.00 0.00 81 1014.0
20260502162555 23 294 1.6 1.6 0.00 0.00 0.00 81 1014.0
20260502161255 24 294 3.2 1.6 0.00 0.00 0.00 81 1014.0
20260502152047 24 296 3.2 1.6 0.00 0.00 0.00 81 1014.0
20260502150746 22 278 1.6 1.6 0.00 0.00 0.00 89 1014.0
20260502123128 20 96 1.6 1.6 0.00 0.00 0.00 96 1015.0
20260502121827 20 96 1.6 1.6 0.00 0.00 0.00 96 1015.0
20260502120527 21 96 1.6 1.6 0.00 0.00 0.00 96 1014.0
20260502115224 21 96 1.6 1.6 0.00 0.00 0.00 96 1014.0
20260502113923 22 96 1.6 1.6 0.00 0.00 0.00 96 1014.0
20260502112623 22 96 1.6 1.6 0.00 0.00 0.00 96 1014.0
20260502111322 23 96 1.6 1.6 0.00 0.00 0.00 96 1014.0
20260502110022 23 96 1.6 1.6 0.00 0.00 0.00 96 1014.0
20260502104722 18 96 1.6 1.6 0.00 0.00 0.00 94 1014.0
20260502103421 18 96 1.6 1.6 0.00 0.00 0.00 94 1014.0
20260502102120 19 61 0.0 1.6 0.00 0.00 0.00 94 1014.0
20260502100819 20 61 0.0 1.6 0.00 0.00 0.00 94 1014.0
20260502090316 22 85 0.0 1.6 0.00 0.00 0.00 94 1013.0